Hourly Data Report for October 03, 2013

All times are specified in Local Standard Time (LST). Add 1 hour to adjust for Daylight Saving Time where and when it is observed.

ARVIAT A
NUNAVUT

61°05'38.000" N
94°04'18.000" W
10.40 m
2300427
71174
YEK

Download Data

Hourly Data (October 2013)
Hourly Data Report for October 3, 2013
Temp Definition
°C
Dew Point Temp Definition
°C
Rel Hum Definition
%
Wind Dir Definition
10's deg

Wind Spd Definition
km/h
Visibility Definition
km
Stn Press Definition
kPa
Hmdx Definition


Wind Chill Definition


Weather Definition


TIME
00:00 Legend Double Dagger 0.5 -1.9 84 35 28 16.1 101.43     LegendNANA
01:00 Legend Double Dagger 0.0 -1.6 89 34 26 16.1 101.45   -6 LegendNANA
02:00 Legend Double Dagger -0.2 -1.3 93 35 24 16.1 101.46   -6 LegendNANA
03:00 Legend Double Dagger -0.3 -1.4 92 35 22 16.1 101.51   -6 LegendNANA
04:00 Legend Double Dagger -0.7 -1.8 92 35 22 16.1 101.58   -6 LegendNANA
05:00 Legend Double Dagger -1.2 -2.6 90 36 22 16.1 101.63   -7 LegendNANA
06:00 Legend Double Dagger -1.4 -2.5 92 36 30 16.1 101.70   -8 LegendNANA
07:00 Legend Double Dagger -1.7 -2.5 94 36 24 16.1 101.78   -8 LegendNANA
08:00 Legend Double Dagger -1.8 -3.4 89 36 32 16.1 101.87   -9 LegendNANA
09:00 Legend Double Dagger -1.8 -4.4 83 35 33 16.1 101.93   -9 LegendNANA
10:00 Legend Double Dagger -1.9 -4.8 81 36 33 16.1 102.01   -9 LegendNANA
11:00 Legend Double Dagger -2.1 -5.3 79 1 32 16.1 102.07   -9 LegendNANA
12:00 Legend Double Dagger -1.8 -5.4 76 36 32 16.1 102.14   -9 LegendNANA
13:00 Legend Double Dagger -1.9 -5.2 78 36 22 16.1 102.21   -8 LegendNANA
14:00 Legend Double Dagger -1.8 -5.2 78 1 24 16.1 102.24   -8 LegendNANA
15:00 Legend Double Dagger -1.4 -5.2 75 36 22 16.1 102.29   -7 LegendNANA
16:00 Legend Double Dagger -1.6 -5.4 75 1 24 16.1 102.34   -8 LegendNANA
17:00 Legend Double Dagger -1.8 -5.5 76 35 28 16.1 102.39   -9 LegendNANA
18:00 Legend Double Dagger -1.9 -5.7 76 35 26 16.1 102.43   -8 LegendNANA
19:00 Legend Double Dagger -1.7 -5.7 74 36 22 16.1 102.46   -8 LegendNANA
20:00 Legend Double Dagger -1.9 -5.9 74 1 28 16.1 102.50   -9 LegendNANA
21:00 Legend Double Dagger -2.1 -5.6 77 34 22 16.1 102.53   -8 LegendNANA
22:00 Legend Double Dagger -2.5 -6.6 74 35 32 16.1 102.58   -10 LegendNANA
23:00 Legend Double Dagger -2.5 -6.3 75 35 32 16.1 102.61   -10 LegendNANA

Notes on Data Quality.

Legend

  • E = Estimated
  • M = Missing
  • NA = Not Available
  • ‡ = Partner data that is not subject to review by the National Climate Archives
Date modified: